"SCET";"TARGET";"ELECTRON_DENSITY";"ERROR_FLAG";"ELECTRON_DENSITY_ERROR";"FREQ_FCE";"MEASURED_VALUE";"MEASURED_ITEM";"FREQ_PLASMA";"FREQ_UPPER_HYBRID";"FREQ_R_EQUALS_ZERO";"FREQ_L_EQUALS_ZERO";"ORBIT_NUMBER";"SATURN_RADIUS";"SATURN_IAU_LONGITUDE";"SATURN_SLS4_S_LONGITUDE";"SATURN_SLS4_N_LONGITUDE";"SATURN_SLS5_S_LONGITUDE";"SATURN_SLS5_N_LONGITUDE";"SATURN_LOCAL_TIME";"SATURN_KRONOGRAPHIC_LATITUDE";"SATURN_MAGNETIC_LATITUDE";"SATURN_L";"SATURN_L_OFFSET";"SATURN_SOLAR_EQUATORIAL_X";"SATURN_SOLAR_EQUATORIAL_Y";"SATURN_SOLAR_EQUATORIAL_Z";"SATURN_ALTITUDE";"ENCELADUS_ENCOUNTER_NUMBER";"ENCELADUS_RADIUS";"ENCELADUS_COROTATIONAL_X";"ENCELADUS_COROTATIONAL_Y";"ENCELADUS_COROTATIONAL_Z";"ENCELADUS_TRUE_ANOMALY";"ENCELADUS_PERIAPSIS_TIME";"JUPITER_RADIUS";"JUPITER_SYSTEMIII_LONGITUDE";"JUPITER_MAGNETIC_LATITUDE";"JUPITER_MAGNETIC_LOCAL_TIME";"JUPITER_L";"IO_PHASE";"EARTH_RADIUS";"EARTH_MAGNETIC_LATITUDE";"EARTH_LOCAL_TIME";"EARTH_L"
"[UTC]";"[0=Saturn, 1=Enceladus, 2=Jupiter, 3=Earth]";"[cm-3]";"[0=automated, 1=manual]";"[normalized density error]";"[Hz]";"[Hz]";"[0=upper hybrid frequency, 1=plasma frequency cutoff]";"[Hz]";"[Hz]";"[Hz]";"[Hz}";"[0, A, B, C, 3, 4, ... , 292, 293]";"[Rs where 1Rs=60268km]";"[degrees]";"[degrees]";"[degrees]";"[degrees]";"[degrees]";"[hours]";"[degrees]";"[degrees where offset=2293km north]";"[Rs where 1Rs=60268km]";"[Rs where 1Rs=60268km and offset=2293km north]";"[Rs where 1Rs=60268km]";"[Rs where 1Rs=60268km]";"[Rs where 1Rs=60268km]";"[km where ellipsoid a,b=60268km and c=54364km]";"[E0, E1, E2, ... , E21, E22]";"[Renc where 1Renc=252.1km]";"[Renc where 1Renc=252.1km]";"[Renc where 1Renc=252.1km]";"[Renc where 1Renc=252.1km]";"[degrees]";"[UTC]";"[Rj where 1Rj=71492km]";"[degrees]";"[degrees using JRM09 model]";"[hours using JRM09 model]";"[Rj where 1Rj=71492km]";"[degrees]";"[Re where 1Re=6378.1366km]";"[degrees]";"[hours]";"[Re where 1Re=6378.1366km]"
2010-07-04T23:01:26.623Z;0;4.2310e+00;0;     0.131;  4123.504;  18926.328; 0;  18471.670;  18926.328;  20648.129;  16524.625;134;   5.343; 247.783;;;  32.921;  22.421;   0.392; -15.845; -16.237;   5.773;   5.348;  -5.113;  -0.527;  -1.459;;;;;;;;;;;;;;;;;;
2010-07-04T23:01:42.623Z;0;4.1360e+00;0;     0.078;  4123.504;  18722.812; 0;  18263.090;  18722.812;  20440.850;  16317.346;134;   5.341; 247.901;;;  33.040;  22.540;   0.395; -15.840; -16.231;   5.770;   5.346;  -5.110;  -0.530;  -1.458;;;;;;;;;;;;;;;;;;
2010-07-04T23:01:58.623Z;0;4.3100e+00;0;     0.089;  4123.504;  19093.594; 0;  18643.016;  19093.594;  20818.428;  16694.924;134;   5.338; 248.019;;;  33.158;  22.658;   0.397; -15.834; -16.226;   5.768;   5.343;  -5.108;  -0.533;  -1.456;;;;;;;;;;;;;;;;;;
2010-07-04T23:02:14.623Z;0;4.1830e+00;0;     0.062;  4143.888;  18828.482; 0;  18366.816;  18828.482;  20555.258;  16411.369;134;   5.336; 248.137;;;  33.276;  22.776;   0.399; -15.828; -16.220;   5.765;   5.341;  -5.105;  -0.535;  -1.455;;;;;;;;;;;;;;;;;;
2010-07-04T23:02:30.623Z;0;4.3940e+00;0;     0.074;  4143.888;  19274.363; 0;  18823.637;  19274.363;  21009.268;  16865.379;134;   5.333; 248.255;;;  33.394;  22.894;   0.401; -15.822; -16.215;   5.762;   5.338;  -5.103;  -0.538;  -1.454;;;;;;;;;;;;;;;;;;
2010-07-04T23:02:46.623Z;0;4.4210e+00;0;     0.077;  4143.888;  19330.957; 0;  18881.580;  19330.957;  21066.865;  16922.977;134;   5.331; 248.373;;;  33.511;  23.011;   0.403; -15.817; -16.209;   5.759;   5.336;  -5.100;  -0.541;  -1.453;;;;;;;;;;;;;;;;;;
2010-07-04T23:03:02.623Z;0;4.4110e+00;0;     0.072;  4164.244;  19314.418; 0;  18860.164;  19314.418;  21056.869;  16892.625;134;   5.328; 248.491;;;  33.629;  23.129;   0.405; -15.811; -16.204;   5.756;   5.334;  -5.098;  -0.543;  -1.452;;;;;;;;;;;;;;;;;;
2010-07-04T23:03:18.623Z;0;4.4810e+00;0;     0.074;  4164.244;  19460.375; 0;  19009.609;  19460.375;  21205.420;  17041.176;134;   5.326; 248.609;;;  33.747;  23.247;   0.407; -15.805; -16.198;   5.753;   5.331;  -5.095;  -0.546;  -1.451;;;;;;;;;;;;;;;;;;
2010-07-04T23:03:34.623Z;0;4.4000e+00;0;     0.078;  4164.244;  19290.820; 0;  18835.998;  19290.820;  21032.850;  16868.605;134;   5.324; 248.727;;;  33.864;  23.364;   0.410; -15.799; -16.192;   5.750;   5.329;  -5.093;  -0.548;  -1.449;;;;;;;;;;;;;;;;;;
2010-07-04T23:03:50.623Z;0;4.3230e+00;0;     0.068;  4164.244;  19129.092; 0;  18670.330;  19129.092;  20868.193;  16703.949;134;   5.321; 248.844;;;  33.982;  23.482;   0.412; -15.793; -16.187;   5.747;   5.326;  -5.091;  -0.551;  -1.448;;;;;;;;;;;;;;;;;;
2010-07-04T23:04:06.621Z;0;4.5400e+00;0;     0.054;  4185.440;  19585.643; 0;  19133.203;  19585.643;  21340.031;  17154.590;134;   5.319; 248.962;;;  34.099;  23.599;   0.414; -15.787; -16.181;   5.744;   5.324;  -5.088;  -0.554;  -1.447;;;;;;;;;;;;;;;;;;
2010-07-04T23:04:22.621Z;0;4.3540e+00;0;     0.059;  4185.440;  19199.211; 0;  18737.443;  19199.211;  20946.666;  16761.227;134;   5.316; 249.080;;;  34.216;  23.716;   0.416; -15.782; -16.175;   5.741;   5.321;  -5.086;  -0.556;  -1.446;;;;;;;;;;;;;;;;;;
2010-07-04T23:04:38.621Z;0;4.4050e+00;0;     0.069;  4185.440;  19305.799; 0;  18846.643;  19305.799;  21055.195;  16869.754;134;   5.314; 249.198;;;  34.333;  23.833;   0.418; -15.776; -16.170;   5.738;   5.319;  -5.083;  -0.559;  -1.445;;;;;;;;;;;;;;;;;;
2010-07-04T23:04:54.621Z;0;4.4510e+00;0;     0.072;  4185.440;  19401.268; 0;  18944.426;  19401.268;  21152.383;  16966.943;134;   5.312; 249.316;;;  34.450;  23.950;   0.420; -15.770; -16.164;   5.735;   5.317;  -5.081;  -0.562;  -1.443;;;;;;;;;;;;;;;;;;
2010-07-04T23:05:10.621Z;0;4.5060e+00;0;     0.071;  4205.768;  19521.490; 0;  19063.057;  19521.490;  21281.576;  17075.809;134;   5.309; 249.433;;;  34.567;  24.067;   0.423; -15.764; -16.158;   5.732;   5.314;  -5.078;  -0.564;  -1.442;;;;;;;;;;;;;;;;;;
2010-07-04T23:05:26.621Z;0;4.6470e+00;0;     0.089;  4205.768;  19808.729; 0;  19357.098;  19808.729;  21573.871;  17368.104;134;   5.307; 249.551;;;  34.684;  24.184;   0.425; -15.758; -16.153;   5.729;   5.312;  -5.076;  -0.567;  -1.441;;;;;;;;;;;;;;;;;;
2010-07-04T23:05:42.621Z;0;4.6320e+00;0;     0.058;  4205.768;  19779.111; 0;  19326.789;  19779.111;  21543.740;  17337.973;134;   5.304; 249.669;;;  34.801;  24.301;   0.427; -15.752; -16.147;   5.726;   5.309;  -5.073;  -0.570;  -1.440;;;;;;;;;;;;;;;;;;
2010-07-04T23:05:58.621Z;0;4.6160e+00;0;     0.056;  4205.768;  19747.480; 0;  19294.416;  19747.480;  21511.559;  17305.789;134;   5.302; 249.786;;;  34.917;  24.417;   0.429; -15.746; -16.141;   5.723;   5.307;  -5.071;  -0.572;  -1.439;;;;;;;;;;;;;;;;;;
2010-07-04T23:06:14.621Z;0;4.5990e+00;0;     0.059;  4227.104;  19715.502; 0;  19257.014;  19715.502;  21486.205;  17259.102;134;   5.299; 249.904;;;  35.034;  24.534;   0.431; -15.740; -16.135;   5.720;   5.305;  -5.068;  -0.575;  -1.438;;;;;;;;;;;;;;;;;;
2010-07-04T23:06:30.621Z;0;4.6850e+00;0;     0.078;  4227.104;  19891.641; 0;  19437.309;  19891.641;  21665.434;  17438.330;134;   5.297; 250.021;;;  35.150;  24.650;   0.433; -15.734; -16.130;   5.717;   5.302;  -5.066;  -0.577;  -1.436;;;;;;;;;;;;;;;;;;
2010-07-04T23:06:46.621Z;0;4.7130e+00;0;     0.086;  4227.104;  19948.346; 0;  19495.336;  19948.346;  21723.121;  17496.018;134;   5.295; 250.139;;;  35.266;  24.766;   0.436; -15.728; -16.124;   5.715;   5.300;  -5.063;  -0.580;  -1.435;;;;;;;;;;;;;;;;;;
2010-07-04T23:07:02.621Z;0;4.7760e+00;0;     0.096;  4247.796;  20079.285; 0;  19624.830;  20079.285;  21863.322;  17615.525;134;   5.292; 250.256;;;  35.383;  24.883;   0.438; -15.723; -16.118;   5.712;   5.297;  -5.061;  -0.583;  -1.434;;;;;;;;;;;;;;;;;;
2010-07-04T23:07:18.621Z;0;4.7530e+00;0;     0.116;  4247.796;  20032.156; 0;  19576.605;  20032.156;  21815.379;  17567.584;134;   5.290; 250.374;;;  35.499;  24.999;   0.440; -15.717; -16.112;   5.709;   5.295;  -5.058;  -0.585;  -1.433;;;;;;;;;;;;;;;;;;
2010-07-04T23:07:34.621Z;0;5.2320e+00;0;     0.092;  4247.796;  20974.744; 0;  20540.109;  20974.744;  22773.523;  18525.729;134;   5.287; 250.491;;;  35.615;  25.115;   0.442; -15.711; -16.107;   5.706;   5.292;  -5.056;  -0.588;  -1.432;;;;;;;;;;;;;;;;;;
2010-07-04T23:07:50.621Z;0;4.9400e+00;0;     0.091;  4247.796;  20406.301; 0;  19959.293;  20406.301;  22195.875;  17948.080;134;   5.285; 250.609;;;  35.731;  25.231;   0.444; -15.705; -16.101;   5.703;   5.290;  -5.053;  -0.591;  -1.430;;;;;;;;;;;;;;;;;;
2010-07-04T23:08:06.621Z;0;4.6910e+00;0;     0.103;  4269.692;  19913.369; 0;  19450.244;  19913.369;  21701.898;  17432.207;134;   5.282; 250.726;;;  35.847;  25.347;   0.446; -15.699; -16.095;   5.700;   5.288;  -5.051;  -0.593;  -1.429;;;;;;;;;;;;;;;;;;
2010-07-04T23:08:22.621Z;0;4.5710e+00;0;     0.102;  4269.692;  19667.410; 0;  19198.354;  19667.410;  21451.531;  17181.840;134;   5.280; 250.844;;;  35.962;  25.462;   0.449; -15.693; -16.089;   5.697;   5.285;  -5.048;  -0.596;  -1.428;;;;;;;;;;;;;;;;;;
2010-07-04T23:08:38.621Z;0;4.7710e+00;0;     0.119;  4269.692;  20074.521; 0;  19615.201;  20074.521;  21865.881;  17596.188;134;   5.278; 250.961;;;  36.078;  25.578;   0.451; -15.687; -16.083;   5.694;   5.283;  -5.046;  -0.599;  -1.427;;;;;;;;;;;;;;;;;;
2010-07-04T23:08:54.619Z;0;5.7010e+00;0;     0.128;  4269.692;  21862.693; 0;  21441.713;  21862.693;  23682.576;  19412.885;134;   5.275; 251.078;;;  36.194;  25.694;   0.453; -15.681; -16.078;   5.691;   5.280;  -5.043;  -0.601;  -1.426;;;;;;;;;;;;;;;;;;
2010-07-04T23:09:10.619Z;0;4.9160e+00;0;     0.090;  4290.860;  20367.070; 0;  19909.949;  20367.070;  22170.637;  17879.777;134;   5.273; 251.196;;;  36.309;  25.809;   0.455; -15.675; -16.072;   5.688;   5.278;  -5.041;  -0.604;  -1.425;;;;;;;;;;;;;;;;;;
2010-07-04T23:09:26.619Z;0;4.7530e+00;0;     0.140;  4290.860;  20041.873; 0;  19577.160;  20041.873;  21839.797;  17548.936;134;   5.270; 251.313;;;  36.424;  25.924;   0.457; -15.669; -16.066;   5.685;   5.275;  -5.038;  -0.606;  -1.423;;;;;;;;;;;;;;;;;;
2010-07-04T23:09:42.619Z;0;4.8970e+00;0;     0.109;  4290.860;  20330.201; 0;  19872.232;  20330.201;  22133.139;  17842.277;134;   5.268; 251.430;;;  36.540;  26.040;   0.460; -15.662; -16.060;   5.682;   5.273;  -5.036;  -0.609;  -1.422;;;;;;;;;;;;;;;;;;
2010-07-04T23:09:58.619Z;0;4.6810e+00;0;     0.157;  4290.860;  19896.406; 0;  19428.215;  19896.406;  21691.744;  17400.883;134;   5.266; 251.547;;;  36.655;  26.155;   0.462; -15.656; -16.054;   5.679;   5.271;  -5.033;  -0.612;  -1.421;;;;;;;;;;;;;;;;;;
2010-07-04T23:10:14.619Z;0;5.4750e+00;0;     0.109;  4312.364;  21450.094; 0;  21012.141;  21450.094;  23278.662;  18966.299;134;   5.263; 251.665;;;  36.771;  26.271;   0.464; -15.650; -16.048;   5.676;   5.268;  -5.031;  -0.614;  -1.420;;;;;;;;;;;;;;;;;;
2010-07-04T23:10:30.619Z;0;4.9790e+00;0;     0.107;  4312.364;  20496.057; 0;  20037.262;  20496.057;  22309.121;  17996.758;134;   5.261; 251.782;;;  36.887;  26.387;   0.466; -15.644; -16.042;   5.673;   5.266;  -5.028;  -0.617;  -1.419;;;;;;;;;;;;;;;;;;
2010-07-04T23:10:46.619Z;0;5.0300e+00;0;     0.098;  4312.364;  20595.883; 0;  20139.361;  20595.883;  22410.639;  18098.275;134;   5.258; 251.899;;;  37.004;  26.504;   0.468; -15.638; -16.036;   5.670;   5.263;  -5.026;  -0.620;  -1.417;;;;;;;;;;;;;;;;;;
2010-07-04T23:11:02.619Z;0;4.8670e+00;0;     0.099;  4334.316;  20278.914; 0;  19810.303;  20278.914;  22095.646;  17761.330;134;   5.256; 252.016;;;  37.120;  26.620;   0.471; -15.632; -16.031;   5.667;   5.261;  -5.023;  -0.622;  -1.416;;;;;;;;;;;;;;;;;;
2010-07-04T23:11:18.619Z;0;4.8220e+00;0;     0.093;  4334.316;  20189.535; 0;  19718.799;  20189.535;  22004.688;  17670.373;134;   5.253; 252.133;;;  37.236;  26.736;   0.473; -15.626; -16.025;   5.664;   5.259;  -5.021;  -0.625;  -1.415;;;;;;;;;;;;;;;;;;
2010-07-04T23:11:34.619Z;0;4.8840e+00;0;     0.097;  4334.316;  20313.771; 0;  19845.982;  20313.771;  22131.115;  17796.799;134;   5.251; 252.250;;;  37.353;  26.853;   0.475; -15.620; -16.019;   5.661;   5.256;  -5.018;  -0.627;  -1.414;;;;;;;;;;;;;;;;;;
2010-07-04T23:11:50.619Z;0;4.8820e+00;0;     0.076;  4334.316;  20309.842; 0;  19841.961;  20309.842;  22127.117;  17792.801;134;   5.249; 252.367;;;  37.469;  26.969;   0.477; -15.614; -16.013;   5.659;   5.254;  -5.015;  -0.630;  -1.413;;;;;;;;;;;;;;;;;;
2010-07-04T23:12:06.619Z;0;4.8100e+00;0;     0.106;  4356.324;  20170.951; 0;  19694.916;  20170.951;  21993.158;  17636.836;134;   5.246; 252.484;;;  37.585;  27.085;   0.479; -15.607; -16.007;   5.656;   5.251;  -5.013;  -0.633;  -1.411;;;;;;;;;;;;;;;;;;
2010-07-04T23:12:22.619Z;0;4.8700e+00;0;     0.106;  4356.324;  20290.695; 0;  19817.537;  20290.695;  22115.041;  17758.717;134;   5.244; 252.601;;;  37.701;  27.201;   0.482; -15.601; -16.001;   5.653;   5.249;  -5.010;  -0.635;  -1.410;;;;;;;;;;;;;;;;;;
2010-07-04T23:12:38.619Z;0;4.6600e+00;0;     0.083;  4356.324;  19868.330; 0;  19384.865;  19868.330;  21685.016;  17328.693;134;   5.241; 252.718;;;  37.817;  27.317;   0.484; -15.595; -15.995;   5.650;   5.246;  -5.008;  -0.638;  -1.409;;;;;;;;;;;;;;;;;;
2010-07-04T23:12:54.619Z;0;4.8380e+00;0;     0.085;  4356.324;  20226.328; 0;  19751.627;  20226.328;  22049.527;  17693.203;134;   5.239; 252.835;;;  37.933;  27.433;   0.486; -15.589; -15.989;   5.647;   5.244;  -5.005;  -0.641;  -1.408;;;;;;;;;;;;;;;;;;
2010-07-04T23:13:10.619Z;0;4.7870e+00;0;     0.081;  4378.024;  20129.977; 0;  19648.127;  20129.977;  21958.701;  17580.678;134;   5.237; 252.952;;;  38.049;  27.549;   0.488; -15.583; -15.983;   5.644;   5.242;  -5.003;  -0.643;  -1.407;;;;;;;;;;;;;;;;;;
2010-07-04T23:13:26.617Z;0;4.7030e+00;0;     0.086;  4378.024;  19960.908; 0;  19474.875;  19960.908;  21786.525;  17408.502;134;   5.234; 253.068;;;  38.165;  27.665;   0.491; -15.577; -15.977;   5.641;   5.239;  -5.000;  -0.646;  -1.405;;;;;;;;;;;;;;;;;;
2010-07-04T23:13:42.617Z;0;5.0140e+00;0;     0.098;  4378.024;  20579.748; 0;  20108.678;  20579.748;  22416.486;  18038.463;134;   5.232; 253.185;;;  38.281;  27.781;   0.493; -15.570; -15.971;   5.638;   5.237;  -4.998;  -0.649;  -1.404;;;;;;;;;;;;;;;;;;
2010-07-04T23:13:58.617Z;0;4.7280e+00;0;     0.108;  4378.024;  20010.998; 0;  19526.211;  20010.998;  21837.541;  17459.518;134;   5.229; 253.302;;;  38.397;  27.897;   0.495; -15.564; -15.965;   5.635;   5.234;  -4.995;  -0.651;  -1.403;;;;;;;;;;;;;;;;;;
2010-07-04T23:14:14.617Z;0;5.2200e+00;0;     0.113;  4399.976;  20984.078; 0;  20517.596;  20984.078;  22835.193;  18435.217;134;   5.227; 253.419;;;  38.513;  28.013;   0.497; -15.558; -15.959;   5.632;   5.232;  -4.993;  -0.654;  -1.402;;;;;;;;;;;;;;;;;;
2010-07-04T23:14:30.617Z;0;5.3850e+00;0;     0.086;  4399.976;  21298.957; 0;  20839.525;  21298.957;  23155.314;  18755.340;134;   5.224; 253.536;;;  38.629;  28.129;   0.499; -15.552; -15.953;   5.629;   5.230;  -4.990;  -0.656;  -1.401;;;;;;;;;;;;;;;;;;
2010-07-04T23:14:46.617Z;0;5.2290e+00;0;     0.087;  4399.976;  21000.111; 0;  20533.994;  21000.111;  22851.498;  18451.521;134;   5.222; 253.652;;;  38.745;  28.245;   0.502; -15.545; -15.947;   5.626;   5.227;  -4.988;  -0.659;  -1.399;;;;;;;;;;;;;;;;;;
2010-07-04T23:15:02.617Z;0;5.6870e+00;0;     0.101;  4421.592;  21866.146; 0;  21414.432;  21866.146;  23739.045;  19317.453;134;   5.220; 253.769;;;  38.861;  28.361;   0.504; -15.539; -15.941;   5.623;   5.225;  -4.985;  -0.662;  -1.398;;;;;;;;;;;;;;;;;;
2010-07-04T23:15:18.617Z;0;5.3300e+00;0;     0.084;  4421.592;  21198.525; 0;  20732.270;  21198.525;  23060.607;  18639.016;134;   5.217; 253.886;;;  38.977;  28.477;   0.506; -15.533; -15.935;   5.620;   5.222;  -4.983;  -0.664;  -1.397;;;;;;;;;;;;;;;;;;
2010-07-04T23:15:34.617Z;0;5.2770e+00;0;     0.091;  4421.592;  21096.293; 0;  20627.727;  21096.293;  22956.656;  18535.064;134;   5.215; 254.002;;;  39.093;  28.593;   0.508; -15.527; -15.928;   5.617;   5.220;  -4.980;  -0.667;  -1.396;;;;;;;;;;;;;;;;;;
2010-07-04T23:15:50.617Z;0;5.4210e+00;0;     0.087;  4421.592;  21370.051; 0;  20907.621;  21370.051;  23234.979;  18813.385;134;   5.212; 254.119;;;  39.209;  28.709;   0.511; -15.520; -15.922;   5.614;   5.217;  -4.977;  -0.670;  -1.395;;;;;;;;;;;;;;;;;;
2010-07-04T23:16:06.617Z;0;5.3900e+00;0;     0.066;  4443.992;  21316.953; 0;  20848.584;  21316.953;  23188.652;  18744.660;134;   5.210; 254.235;;;  39.324;  28.824;   0.513; -15.514; -15.916;   5.611;   5.215;  -4.975;  -0.672;  -1.393;;;;;;;;;;;;;;;;;;
2010-07-04T23:16:22.617Z;0;5.3530e+00;0;     0.104;  4443.992;  21246.223; 0;  20776.258;  21246.223;  23116.736;  18672.744;134;   5.208; 254.352;;;  39.440;  28.940;   0.515; -15.508; -15.910;   5.608;   5.213;  -4.972;  -0.675;  -1.392;;;;;;;;;;;;;;;;;;
2010-07-04T23:16:38.617Z;0;5.8450e+00;0;     0.100;  4443.992;  22161.447; 0;  21711.303;  22161.447;  24046.705;  19602.713;134;   5.205; 254.468;;;  39.556;  29.056;   0.517; -15.501; -15.904;   5.606;   5.210;  -4.970;  -0.677;  -1.391;;;;;;;;;;;;;;;;;;
2010-07-04T23:16:54.617Z;0;5.8220e+00;0;     0.118;  4443.992;  22118.965; 0;  21667.938;  22118.965;  24003.566;  19559.574;134;   5.203; 254.585;;;  39.672;  29.171;   0.520; -15.495; -15.898;   5.603;   5.208;  -4.967;  -0.680;  -1.390;;;;;;;;;;;;;;;;;;
2010-07-04T23:17:10.617Z;0;6.2620e+00;0;     0.140;  4466.168;  22910.580; 0;  22471.049;  22910.580;  24814.818;  20348.650;134;   5.200; 254.701;;;  39.787;  29.287;   0.522; -15.489; -15.892;   5.600;   5.205;  -4.965;  -0.683;  -1.389;;;;;;;;;;;;;;;;;;
2010-07-04T23:17:26.617Z;0;5.2830e+00;0;     0.087;  4466.168;  21118.777; 0;  20641.127;  21118.777;  22994.654;  18528.486;134;   5.198; 254.818;;;  39.903;  29.403;   0.524; -15.482; -15.885;   5.597;   5.203;  -4.962;  -0.685;  -1.387;;;;;;;;;;;;;;;;;;
2010-07-04T23:17:42.617Z;0;5.0510e+00;0;     0.097;  4466.168;  20670.404; 0;  20182.145;  20670.404;  22538.395;  18072.227;134;   5.195; 254.934;;;  40.018;  29.518;   0.526; -15.476; -15.879;   5.594;   5.201;  -4.960;  -0.688;  -1.386;;;;;;;;;;;;;;;;;;
2010-07-04T23:17:58.617Z;0;5.1790e+00;0;     0.068;  4466.168;  20918.469; 0;  20436.137;  20918.469;  22790.865;  18324.697;134;   5.193; 255.050;;;  40.134;  29.634;   0.529; -15.469; -15.873;   5.591;   5.198;  -4.957;  -0.691;  -1.385;;;;;;;;;;;;;;;;;;
2010-07-04T23:18:14.615Z;0;5.3450e+00;0;     0.065;  4489.072;  21241.725; 0;  20761.963;  21241.725;  23127.473;  18638.400;134;   5.191; 255.167;;;  40.249;  29.749;   0.531; -15.463; -15.867;   5.588;   5.196;  -4.954;  -0.693;  -1.384;;;;;;;;;;;;;;;;;;
2010-07-04T23:18:30.615Z;0;5.2530e+00;0;     0.088;  4489.072;  21066.018; 0;  20582.160;  21066.018;  22948.721;  18459.648;134;   5.188; 255.283;;;  40.365;  29.865;   0.533; -15.457; -15.861;   5.585;   5.193;  -4.952;  -0.696;  -1.383;;;;;;;;;;;;;;;;;;
2010-07-04T23:18:46.615Z;0;5.9640e+00;0;     0.096;  4489.072;  22385.865; 0;  21931.146;  22385.865;  24290.242;  19801.170;134;   5.186; 255.399;;;  40.480;  29.980;   0.535; -15.450; -15.854;   5.582;   5.191;  -4.949;  -0.698;  -1.381;;;;;;;;;;;;;;;;;;
2010-07-04T23:19:02.615Z;0;5.3150e+00;0;     0.091;  4511.192;  21188.432; 0;  20702.627;  21188.432;  23080.736;  18569.545;134;   5.183; 255.515;;;  40.596;  30.096;   0.538; -15.444; -15.848;   5.579;   5.188;  -4.947;  -0.701;  -1.380;;;;;;;;;;;;;;;;;;
2010-07-04T23:19:18.615Z;0;5.3560e+00;0;     0.097;  4511.192;  21267.318; 0;  20783.357;  21267.318;  23160.994;  18649.803;134;   5.181; 255.632;;;  40.711;  30.211;   0.540; -15.437; -15.842;   5.576;   5.186;  -4.944;  -0.704;  -1.379;;;;;;;;;;;;;;;;;;
2010-07-04T23:19:34.615Z;0;5.7630e+00;0;     0.106;  4511.192;  22025.197; 0;  21558.258;  22025.197;  23931.531;  19420.340;134;   5.179; 255.748;;;  40.827;  30.327;   0.542; -15.431; -15.836;   5.573;   5.184;  -4.942;  -0.706;  -1.378;;;;;;;;;;;;;;;;;;
2010-07-04T23:19:50.615Z;0;5.5640e+00;0;     0.081;  4511.192;  21657.910; 0;  21182.875;  21657.910;  23558.223;  19047.031;134;   5.176; 255.864;;;  40.942;  30.442;   0.544; -15.424; -15.829;   5.570;   5.181;  -4.939;  -0.709;  -1.377;;;;;;;;;;;;;;;;;;
2010-07-04T23:20:06.615Z;0;5.5610e+00;0;     0.148;  4534.264;  21656.857; 0;  21176.873;  21656.857;  23565.016;  19030.750;134;   5.174; 255.980;;;  41.057;  30.557;   0.547; -15.418; -15.823;   5.567;   5.179;  -4.936;  -0.712;  -1.375;;;;;;;;;;;;;;;;;;
2010-07-04T23:20:22.615Z;0;5.5160e+00;0;     0.123;  4534.264;  21572.645; 0;  21090.742;  21572.645;  23479.377;  18945.113;134;   5.171; 256.096;;;  41.173;  30.673;   0.549; -15.411; -15.817;   5.564;   5.176;  -4.934;  -0.714;  -1.374;;;;;;;;;;;;;;;;;;
2010-07-04T23:20:38.615Z;0;5.5430e+00;0;     0.098;  4534.264;  21622.766; 0;  21142.006;  21622.766;  23530.348;  18996.084;134;   5.169; 256.212;;;  41.288;  30.788;   0.551; -15.405; -15.811;   5.561;   5.174;  -4.931;  -0.717;  -1.373;;;;;;;;;;;;;;;;;;
2010-07-04T23:20:54.615Z;0;5.8410e+00;0;     0.092;  4534.264;  22170.828; 0;  21702.213;  22170.828;  24087.443;  19553.178;134;   5.166; 256.328;;;  41.403;  30.903;   0.553; -15.398; -15.804;   5.558;   5.171;  -4.929;  -0.719;  -1.372;;;;;;;;;;;;;;;;;;
2010-07-04T23:21:10.615Z;0;5.4620e+00;0;     0.101;  4556.776;  21476.996; 0;  20988.023;  21476.996;  23389.717;  18832.941;134;   5.164; 256.444;;;  41.518;  31.018;   0.556; -15.392; -15.798;   5.555;   5.169;  -4.926;  -0.722;  -1.371;;;;;;;;;;;;;;;;;;
2010-07-04T23:21:26.615Z;0;5.9110e+00;0;     0.080;  4556.776;  22303.133; 0;  21832.672;  22303.133;  24229.619;  19672.844;134;   5.162; 256.560;;;  41.634;  31.134;   0.558; -15.385; -15.792;   5.552;   5.167;  -4.924;  -0.725;  -1.369;;;;;;;;;;;;;;;;;;
2010-07-04T23:21:42.615Z;0;5.8920e+00;0;     0.117;  4556.776;  22268.512; 0;  21797.303;  22268.512;  24194.443;  19637.666;134;   5.159; 256.676;;;  41.749;  31.249;   0.560; -15.379; -15.785;   5.550;   5.164;  -4.921;  -0.727;  -1.368;;;;;;;;;;;;;;;;;;
2010-07-04T23:21:58.615Z;0;6.2820e+00;0;     0.123;  4556.776;  22963.320; 0;  22506.662;  22963.320;  24900.080;  20343.303;134;   5.157; 256.792;;;  41.864;  31.364;   0.563; -15.372; -15.779;   5.547;   5.162;  -4.918;  -0.730;  -1.367;;;;;;;;;;;;;;;;;;
2010-07-04T23:22:14.615Z;0;6.0060e+00;0;     0.064;  4579.736;  22479.152; 0;  22007.688;  22479.152;  24416.363;  19836.627;134;   5.154; 256.908;;;  41.979;  31.479;   0.565; -15.366; -15.773;   5.544;   5.159;  -4.916;  -0.733;  -1.366;;;;;;;;;;;;;;;;;;
2010-07-04T23:22:30.615Z;0;6.4260e+00;0;     0.099;  4579.736;  23220.754; 0;  22764.652;  23220.754;  25169.398;  20589.662;134;   5.152; 257.024;;;  42.094;  31.594;   0.567; -15.359; -15.766;   5.541;   5.157;  -4.913;  -0.735;  -1.365;;;;;;;;;;;;;;;;;;
2010-07-04T23:22:46.613Z;0;6.2060e+00;0;     0.147;  4579.736;  22834.725; 0;  22370.754;  22834.725;  24777.512;  20197.777;134;   5.150; 257.139;;;  42.209;  31.709;   0.569; -15.352; -15.760;   5.538;   5.155;  -4.911;  -0.738;  -1.363;;;;;;;;;;;;;;;;;;
2010-07-04T23:23:02.613Z;0;5.7030e+00;0;     0.092;  4602.640;  21933.297; 0;  21444.934;  21933.297;  23869.383;  19266.742;134;   5.147; 257.255;;;  42.324;  31.824;   0.572; -15.346; -15.753;   5.535;   5.152;  -4.908;  -0.740;  -1.362;;;;;;;;;;;;;;;;;;
2010-07-04T23:23:18.613Z;0;6.4900e+00;0;     0.120;  4602.640;  23336.115; 0;  22877.719;  23336.115;  25294.494;  20691.854;134;   5.145; 257.371;;;  42.439;  31.939;   0.574; -15.339; -15.747;   5.532;   5.150;  -4.905;  -0.743;  -1.361;;;;;;;;;;;;;;;;;;
2010-07-04T23:23:34.613Z;0;5.9560e+00;0;     0.074;  4602.640;  22393.797; 0;  21915.699;  22393.797;  24337.516;  19734.875;134;   5.142; 257.487;;;  42.554;  32.054;   0.576; -15.333; -15.741;   5.529;   5.147;  -4.903;  -0.746;  -1.360;;;;;;;;;;;;;;;;;;
2010-07-04T23:23:50.613Z;0;6.1380e+00;0;     0.094;  4602.640;  22719.711; 0;  22248.617;  22719.711;  24668.641;  20066.000;134;   5.140; 257.602;;;  42.669;  32.169;   0.579; -15.326; -15.734;   5.526;   5.145;  -4.900;  -0.748;  -1.358;;;;;;;;;;;;;;;;;;